Temp
-10 -9 -9 -9 -9 -10 -10 -11 -11 -11 -11 -11 -11 -11 -11 -12 -12 -12 -12 -13 -13 -13 -14 -14 -15 -15 -15 -15 -15 -15 -15 -15 -15 -15 -15 -15 -16 -16 -16 -17 -17 -17 -16
-10 -10 -10 -10 -10 -10 -9 -10 -11 -12 -12 -12 -12 -12 -12 -12 -12 -12 -12 -13 -13 -13 -14 -14 -15 -15 -15 -14 -14 -15 -15 -15 -15 -15 -15 -15 -15 -16 -16 -16 -17 -17 -17
-11 -11 -11 -11 -11 -10 -10 -11 -11 -11 -12 -13 -12 -12 -12 -12 -12 -12 -13 -13 -13 -13 -14 -14 -14 -14 -15 -15 -15 -15 -15 -16 -15 -15 -15 -15 -16 -16 -16 -17 -17 -17 -17
-11 -11 -12 -12 -11 -11 -11 -11 -10 -12 -12 -13 -13 -13 -13 -12 -12 -13 -13 -13 -13 -14 -14 -14 -14 -14 -14 -14 -15 -15 -15 -16 -16 -16 -16 -15 -16 -16 -17 -17 -17 -17 -17
-11 -11 -12 -12 -12 -12 -12 -12 -11 -11 -12 -13 -13 -13 -14 -13 -13 -13 -13 -13 -13 -14 -14 -14 -14 -14 -14 -13 -15 -15 -15 -16 -16 -16 -16 -16 -16 -17 -17 -18 -17 -17 -17
-12 -12 -13 -13 -13 -13 -13 -12 -12 -12 -13 -13 -14 -14 -14 -14 -14 -14 -14 -14 -13 -13 -14 -14 -14 -14 -14 -15 -15 -15 -16 -16 -16 -16 -16 -16 -17 -17 -17 -18 -17 -17 -17
-13 -13 -13 -13 -14 -13 -13 -13 -13 -13 -13 -14 -14 -14 -15 -15 -15 -14 -14 -14 -14 -14 -14 -14 -14 -14 -14 -15 -15 -15 -15 -16 -16 -16 -16 -16 -17 -17 -18 -18 -18 -18 -18
-13 -13 -12 -13 -13 -13 -13 -13 -14 -15 -14 -15 -14 -14 -14 -15 -15 -14 -14 -14 -14 -14 -15 -14 -14 -15 -14 -15 -15 -15 -16 -15 -16 -16 -16 -16 -17 -17 -18 -18 -18 -18 -18
-13 -14 -13 -13 -13 -13 -13 -15 -17 -16 -15 -15 -15 -14 -14 -14 -15 -14 -14 -15 -14 -14 -14 -14 -14 -14 -14 -15 -15 -16 -15 -16 -16 -16 -17 -17 -17 -18 -18 -18 -18 -18 -18
-15 -15 -14 -14 -14 -14 -14 -16 -17 -17 -16 -15 -15 -15 -15 -15 -15 -15 -14 -15 -14 -14 -14 -15 -14 -14 -15 -15 -15 -15 -15 -15 -16 -16 -18 -17 -18 -18 -18 -18 -18 -18 -19
-16 -17 -16 -15 -15 -16 -17 -17 -16 -17 -16 -16 -15 -15 -15 -15 -15 -15 -15 -15 -15 -15 -14 -14 -14 -14 -14 -15 -16 -16 -16 -17 -17 -17 -17 -18 -18 -18 -18 -18 -19 -19 -19
-18 -18 -17 -17 -17 -17 -17 -16 -16 -16 -16 -16 -15 -15 -15 -15 -15 -15 -15 -15 -15 -14 -14 -15 -14 -14 -15 -15 -16 -17 -17 -17 -18 -18 -18 -18 -18 -18 -19 -19 -19 -20 -20
-20 -19 -19 -18 -18 -17 -17 -16 -16 -16 -16 -16 -16 -16 -15 -15 -15 -15 -16 -15 -15 -15 -16 -15 -15 -16 -16 -17 -17 -17 -17 -17 -17 -18 -18 -18 -18 -19 -19 -20 -20 -20 -20
-21 -19 -19 -18 -18 -17 -16 -17 -16 -17 -16 -17 -16 -15 -15 -15 -15 -16 -16 -15 -15 -16 -16 -15 -16 -17 -17 -17 -17 -17 -17 -17 -18 -18 -18 -18 -19 -20 -20 -21 -20 -21 -20
-23 -22 -21 -20 -19 -18 -17 -17 -17 -17 -17 -16 -16 -15 -15 -16 -16 -16 -15 -15 -16 -16 -16 -17 -17 -17 -17 -17 -17 -17 -17 -18 -19 -19 -19 -19 -20 -20 -21 -21 -21 -21 -21
-23 -23 -22 -21 -20 -19 -18 -19 -18 -16 -17 -17 -17 -17 -16 -16 -16 -16 -16 -17 -16 -16 -17 -17 -17 -18 -17 -17 -17 -18 -17 -18 -19 -19 -19 -20 -20 -21 -21 -21 -21 -21 -21
-23 -23 -23 -22 -21 -20 -20 -19 -20 -19 -17 -17 -17 -17 -17 -17 -16 -16 -17 -16 -16 -17 -17 -17 -17 -17 -17 -18 -18 -19 -19 -19 -20 -20 -20 -21 -21 -21 -21 -21 -22 -22 -22
-23 -23 -23 -22 -21 -21 -20 -20 -20 -19 -18 -18 -18 -17 -17 -17 -17 -16 -18 -17 -18 -18 -18 -18 -18 -17 -18 -18 -18 -18 -18 -20 -21 -20 -21 -20 -21 -22 -22 -22 -22 -22 -22
-24 -23 -22 -22 -22 -21 -21 -20 -20 -19 -19 -19 -19 -19 -18 -19 -18 -18 -18 -18 -18 -18 -18 -18 -19 -18 -18 -18 -18 -19 -20 -21 -21 -21 -21 -21 -22 -22 -22 -22 -22 -22 -22
-24 -23 -23 -22 -22 -21 -21 -20 -19 -19 -19 -19 -19 -19 -19 -18 -18 -18 -18 -19 -19 -19 -19 -19 -19 -19 -19 -19 -19 -19 -20 -21 -21 -22 -22 -21 -22 -22 -23 -22 -22 -22 -23
-24 -24 -23 -22 -22 -21 -21 -20 -20 -20 -19 -19 -19 -19 -19 -19 -20 -19 -19 -19 -19 -19 -19 -19 -20 -20 -20 -20 -20 -20 -22 -22 -22 -22 -22 -22 -22 -23 -23 -23 -23 -23 -23
-25 -24 -24 -23 -22 -22 -21 -20 -19 -20 -20 -20 -19 -19 -20 -20 -20 -20 -20 -20 -20 -20 -20 -20 -21 -21 -20 -21 -21 -21 -23 -22 -22 -22 -22 -22 -22 -23 -23 -23 -23 -23 -23
-24 -24 -24 -24 -23 -22 -21 -20 -20 -20 -21 -21 -20 -21 -21 -21 -21 -21 -21 -21 -20 -20 -20 -20 -21 -21 -21 -21 -22 -22 -23 -23 -23 -22 -22 -23 -23 -23 -23 -23 -24 -24 -24
-24 -24 -24 -24 -23 -22 -21 -21 -20 -21 -21 -21 -21 -21 -21 -21 -21 -21 -21 -21 -21 -21 -21 -21 -21 -22 -21 -22 -22 -23 -23 -23 -23 -23 -22 -23 -23 -23 -23 -24 -24 -24 -24
-24 -24 -24 -24 -23 -22 -22 -22 -21 -22 -23 -23 -22 -22 -21 -21 -22 -22 -22 -21 -21 -21 -21 -21 -22 -22 -22 -23 -23 -23 -23 -23 -23 -23 -23 -23 -23 -24 -24 -24 -24 -25 -25
-25 -24 -24 -23 -23 -23 -23 -23 -23 -23 -23 -22 -22 -22 -22 -22 -22 -22 -22 -22 -22 -22 -22 -22 -22 -22 -22 -23 -23 -23 -23 -23 -23 -23 -23 -23 -24 -24 -24 -25 -25 -26 -25
Height
5759 5755 5753 5751 5750 5749 5749 5749 5748 5749 5747 5748 5746 5745 5744 5743 5741 5743 5743 5744 5745 5745 5746 5746 5745 5746 5748 5749 5749 5750 5749 5749 5750 5749 5747 5746 5745 5745 5743 5742 5742 5741 5740
5746 5745 5743 5741 5741 5741 5739 5738 5738 5736 5736 5735 5735 5733 5733 5732 5732 5732 5732 5734 5734 5736 5736 5736 5735 5736 5738 5738 5739 5740 5739 5740 5741 5740 5738 5737 5737 5736 5733 5732 5732 5731 5730
5736 5733 5732 5732 5731 5730 5730 5728 5727 5724 5723 5722 5722 5721 5720 5722 5721 5721 5721 5723 5723 5724 5724 5725 5725 5725 5724 5727 5729 5730 5730 5730 5730 5730 5730 5728 5728 5726 5724 5723 5722 5721 5720
5724 5720 5718 5717 5717 5717 5714 5715 5715 5712 5711 5707 5708 5709 5709 5710 5710 5708 5708 5709 5711 5713 5713 5714 5715 5715 5717 5718 5719 5720 5721 5721 5721 5720 5720 5720 5718 5717 5715 5713 5712 5711 5710
5709 5708 5703 5699 5699 5698 5698 5697 5695 5694 5695 5694 5694 5696 5696 5696 5697 5697 5697 5699 5701 5702 5703 5704 5704 5704 5705 5703 5707 5709 5710 5711 5711 5710 5710 5709 5708 5706 5704 5704 5703 5701 5699
5692 5690 5686 5684 5683 5683 5682 5680 5677 5675 5675 5677 5680 5683 5683 5685 5685 5686 5685 5686 5690 5690 5692 5691 5690 5691 5696 5697 5698 5697 5698 5699 5700 5700 5700 5700 5698 5695 5693 5692 5692 5690 5689
5671 5668 5666 5664 5664 5662 5662 5658 5657 5657 5656 5659 5663 5667 5670 5672 5673 5673 5674 5673 5677 5678 5679 5679 5676 5676 5681 5684 5686 5686 5686 5687 5689 5689 5690 5690 5687 5684 5684 5683 5682 5681 5678
5651 5647 5643 5642 5641 5638 5638 5636 5635 5636 5639 5641 5647 5653 5654 5658 5660 5659 5661 5661 5663 5666 5666 5667 5664 5665 5666 5670 5673 5674 5676 5678 5677 5677 5680 5678 5677 5675 5674 5673 5671 5670 5668
5625 5623 5622 5618 5615 5614 5612 5609 5614 5618 5622 5626 5631 5636 5640 5643 5646 5646 5648 5647 5654 5654 5653 5652 5650 5650 5649 5656 5660 5662 5663 5666 5666 5666 5669 5668 5667 5667 5666 5665 5663 5661 5660
5596 5597 5595 5594 5588 5586 5587 5589 5594 5599 5606 5609 5614 5620 5625 5629 5631 5632 5634 5638 5642 5640 5638 5636 5634 5635 5636 5642 5646 5649 5653 5654 5656 5657 5656 5656 5656 5657 5656 5654 5653 5653 5652
5573 5572 5572 5567 5564 5562 5566 5571 5577 5584 5588 5593 5598 5603 5609 5614 5617 5620 5623 5627 5628 5625 5622 5624 5626 5624 5629 5632 5636 5637 5640 5642 5645 5645 5646 5647 5647 5647 5646 5644 5644 5642 5641
5560 5556 5549 5547 5546 5550 5551 5554 5559 5567 5572 5577 5582 5587 5593 5599 5604 5607 5612 5615 5614 5605 5608 5613 5613 5614 5618 5621 5624 5626 5629 5631 5632 5634 5635 5636 5637 5636 5635 5636 5636 5635 5633
5544 5542 5537 5535 5537 5539 5538 5541 5541 5549 5557 5561 5567 5573 5579 5584 5590 5594 5599 5602 5598 5592 5598 5601 5605 5604 5607 5611 5612 5615 5618 5621 5622 5623 5623 5624 5625 5625 5626 5627 5627 5626 5625
5532 5533 5530 5526 5529 5530 5524 5525 5531 5536 5543 5549 5555 5560 5565 5571 5577 5582 5586 5590 5593 5594 5584 5585 5594 5596 5598 5603 5603 5605 5608 5611 5612 5612 5613 5613 5614 5614 5616 5618 5618 5618 5616
5526 5524 5522 5520 5522 5524 5522 5517 5519 5524 5532 5538 5543 5548 5553 5559 5565 5570 5574 5577 5580 5582 5579 5582 5587 5587 5591 5592 5594 5595 5598 5600 5600 5602 5602 5603 5604 5607 5607 5609 5609 5608 5608
5517 5517 5517 5515 5515 5518 5517 5515 5513 5516 5520 5526 5533 5538 5543 5548 5554 5559 5560 5563 5565 5570 5565 5570 5579 5578 5579 5582 5584 5585 5588 5589 5590 5590 5591 5592 5593 5596 5598 5599 5600 5599 5598
5505 5505 5509 5510 5510 5512 5510 5509 5512 5513 5514 5512 5523 5529 5533 5538 5544 5547 5549 5548 5554 5557 5561 5562 5567 5571 5573 5572 5575 5577 5578 5578 5579 5580 5582 5584 5586 5587 5589 5590 5590 5589 5589
5494 5494 5497 5502 5502 5504 5506 5506 5509 5511 5512 5511 5514 5519 5522 5526 5530 5535 5536 5540 5544 5548 5551 5554 5561 5562 5564 5567 5568 5569 5568 5569 5571 5573 5575 5577 5578 5579 5580 5581 5581 5579 5580
5479 5482 5484 5490 5493 5495 5497 5500 5503 5507 5509 5509 5511 5517 5518 5519 5522 5526 5530 5534 5537 5539 5543 5547 5550 5550 5554 5556 5556 5558 5559 5561 5563 5566 5567 5568 5569 5569 5571 5571 5571 5572 5571
5468 5471 5473 5478 5482 5486 5489 5491 5495 5499 5498 5501 5505 5510 5512 5512 5516 5520 5522 5525 5528 5532 5535 5537 5538 5541 5544 5544 5545 5548 5550 5553 5555 5557 5559 5559 5561 5561 5561 5563 5563 5564 5563
5461 5461 5461 5466 5469 5472 5480 5482 5485 5491 5491 5493 5496 5500 5504 5506 5509 5511 5514 5518 5521 5524 5526 5527 5529 5531 5532 5534 5535 5537 5539 5542 5545 5547 5548 5549 5550 5551 5552 5553 5553 5554 5552
5451 5451 5450 5453 5458 5460 5467 5471 5475 5481 5482 5483 5488 5490 5495 5499 5501 5503 5506 5509 5510 5512 5515 5518 5520 5521 5521 5522 5524 5527 5531 5534 5537 5538 5539 5539 5540 5542 5542 5543 5543 5542 5542
5440 5442 5444 5445 5446 5450 5455 5459 5464 5471 5474 5475 5480 5483 5487 5490 5493 5495 5496 5500 5502 5504 5505 5505 5507 5509 5510 5512 5514 5517 5521 5524 5527 5529 5530 5528 5530 5532 5532 5532 5531 5531 5531
5434 5436 5437 5439 5437 5442 5447 5447 5451 5459 5461 5466 5471 5476 5479 5482 5484 5487 5490 5490 5491 5492 5494 5497 5499 5501 5501 5502 5505 5509 5512 5514 5518 5518 5518 5519 5520 5521 5521 5520 5520 5520 5519
5432 5432 5432 5435 5437 5438 5439 5439 5442 5450 5453 5457 5464 5469 5473 5476 5477 5479 5481 5482 5482 5485 5485 5487 5489 5490 5492 5493 5495 5498 5502 5505 5506 5507 5509 5509 5509 5509 5509 5508 5508 5508 5507
5433 5432 5431 5432 5433 5435 5439 5437 5440 5444 5448 5453 5457 5461 5464 5466 5467 5469 5472 5474 5476 5477 5476 5477 5477 5480 5481 5482 5486 5489 5493 5495 5496 5497 5498 5498 5499 5497 5497 5497 5496 5496 5495
Wind_Speed
32 37 40 44 47 49 46 44 46 46 48 46 45 47 48 49 49 46 45 43 43 41 41 42 43 42 41 42 40 39 40 40 39 38 41 43 42 42 46 44 42 42 42
34 32 33 34 40 46 53 55 48 47 47 48 45 50 52 52 51 52 49 45 44 43 43 44 47 46 43 49 46 41 39 37 39 39 41 42 38 41 45 49 46 46 41
37 31 34 37 40 45 49 56 56 54 46 50 52 55 56 54 54 55 51 47 42 41 43 45 48 46 52 41 49 44 40 39 41 41 39 37 41 42 43 44 41 37 37
44 42 39 40 43 43 55 57 68 58 54 52 55 56 56 55 55 56 55 50 46 45 44 46 48 45 45 50 50 42 47 40 42 39 44 40 38 38 40 38 36 35 37
56 57 55 49 50 53 56 55 62 64 58 57 57 57 57 57 55 55 55 52 46 44 44 46 49 49 44 54 45 44 47 48 43 42 39 40 37 34 35 33 34 36 39
67 66 67 68 56 61 61 63 65 67 59 56 58 58 55 55 54 52 54 52 44 45 42 47 51 51 46 51 50 47 48 43 42 42 40 41 34 34 33 33 35 37 37
71 75 81 77 73 65 70 72 71 70 63 58 59 59 55 54 53 52 54 50 45 48 47 54 57 54 48 46 45 42 42 46 51 47 46 41 36 33 33 34 36 36 34
77 81 84 83 82 78 80 79 76 65 67 60 58 59 59 57 57 56 59 50 48 53 55 55 55 55 47 46 42 37 48 50 46 45 48 38 36 32 34 35 35 35 33
73 72 75 81 82 85 84 84 60 61 64 65 58 57 55 58 57 62 59 55 53 56 61 57 63 57 50 45 37 42 46 39 34 39 39 37 34 32 33 34 36 33 33
59 62 68 69 76 82 85 80 63 57 55 61 63 60 56 54 55 58 55 54 53 58 57 65 57 57 46 45 39 38 51 43 40 37 35 35 33 33 34 36 35 33 33
52 63 61 68 76 81 77 71 64 51 43 50 59 60 56 50 51 54 58 51 54 61 64 48 57 64 61 48 36 30 35 40 35 35 36 32 32 34 33 36 33 32 31
47 56 67 65 66 67 62 63 59 53 46 50 55 57 57 57 56 58 54 52 56 62 59 59 57 47 45 38 34 28 30 28 31 34 32 31 32 31 34 32 33 29 29
27 16 28 46 46 52 40 32 32 41 41 46 49 46 47 49 53 55 52 51 55 54 55 51 40 32 28 25 26 26 29 33 35 33 32 31 34 32 31 31 28 28 28
44 24 20 19 33 25 21 39 36 33 40 43 43 43 45 49 48 46 47 50 55 54 38 38 38 25 23 25 24 28 31 33 34 34 34 31 32 31 32 28 26 26 26
22 29 32 24 15 21 13 11 27 41 47 49 50 50 49 49 50 49 49 56 53 53 34 26 28 24 24 27 29 31 35 35 32 29 29 30 30 32 29 26 26 25 26
44 28 32 29 36 30 22 13 5 20 37 49 48 45 48 46 44 45 50 56 37 46 30 29 31 24 29 31 32 33 38 35 33 32 30 31 32 30 27 26 26 26 26
41 35 32 29 29 36 34 37 30 11 12 14 34 42 41 38 32 45 51 37 32 28 29 31 25 32 34 32 33 33 32 29 28 27 30 34 33 27 25 26 26 27 29
33 33 32 28 35 26 22 27 23 21 23 16 19 21 29 32 36 34 25 24 19 23 28 25 27 27 30 34 33 35 31 23 24 26 31 38 32 26 24 26 28 28 31
34 32 27 30 24 29 25 26 23 24 25 16 16 19 14 19 19 25 24 27 26 22 29 34 30 29 34 36 37 34 31 28 24 28 30 35 31 23 23 27 30 31 33
26 26 29 26 21 24 25 28 24 28 30 26 22 27 26 24 27 31 33 32 33 33 34 32 34 34 36 37 38 37 32 27 28 28 27 30 27 23 25 30 31 33 34
32 28 29 32 33 27 27 27 27 32 35 34 32 31 33 34 37 35 35 36 37 36 36 38 36 34 34 36 37 39 30 28 29 31 32 30 28 25 27 31 34 36 35
34 31 30 32 31 31 32 32 31 38 40 37 37 35 37 38 37 36 36 37 38 39 40 35 31 29 33 34 37 37 33 32 32 33 38 31 27 29 30 33 36 37 37
25 23 20 28 33 35 30 46 39 42 41 39 41 36 34 35 32 32 33 36 36 37 38 37 32 32 32 37 39 40 37 39 40 38 39 25 27 31 33 35 36 37 39
10 13 12 22 24 28 31 30 49 43 42 33 32 30 28 27 27 28 30 30 30 31 34 36 34 33 36 44 38 35 36 41 44 42 38 29 29 34 37 37 38 40 40
5 10 16 15 18 19 31 25 30 29 19 20 23 25 25 25 21 22 24 24 24 26 29 33 34 36 36 39 38 37 38 39 39 42 39 37 36 37 39 40 43 44 42
5 6 6 5 13 17 15 19 26 25 24 25 23 24 27 26 26 27 28 29 29 26 28 29 28 35 40 41 34 35 39 43 45 51 46 39 40 39 42 44 43 41 43
Wind_Direction
297 299 295 296 302 302 297 295 290 287 284 278 275 272 267 264 264 266 264 264 263 260 255 255 258 258 264 267 271 274 278 280 280 283 284 279 271 272 271 270 274 279 284
274 285 289 296 302 300 297 293 288 283 278 272 268 268 266 265 268 269 266 263 264 264 262 258 257 259 258 261 266 269 276 277 280 282 287 276 279 281 280 282 280 284 286
265 272 279 283 293 293 290 289 290 280 270 266 263 264 266 268 268 267 267 264 263 262 261 260 262 266 258 256 266 270 269 277 276 277 280 288 285 287 293 290 286 283 285
258 265 265 271 279 283 289 296 284 280 271 259 259 259 260 262 262 262 263 264 260 260 259 259 262 265 256 257 261 269 266 274 279 278 285 285 293 294 293 287 281 284 288
262 264 265 273 266 270 283 282 280 274 269 260 253 251 253 256 257 259 262 264 261 262 266 266 265 264 258 258 256 271 268 277 274 281 281 288 293 287 288 280 280 285 288
261 263 268 274 271 269 274 272 279 266 261 257 253 248 247 250 253 257 260 259 264 269 271 269 263 261 254 256 262 267 265 272 279 276 280 290 286 287 286 278 282 284 285
266 268 272 273 274 275 274 266 266 266 256 254 251 246 244 245 248 251 251 254 263 266 268 278 264 253 256 258 261 267 266 265 278 276 274 288 280 290 281 281 283 286 284
271 273 274 274 276 276 275 263 264 261 258 255 253 248 243 242 242 251 254 260 255 262 268 268 269 249 250 250 261 267 265 269 269 276 274 279 275 282 279 280 282 284 281
276 275 273 273 271 270 263 258 259 255 258 259 255 247 245 243 245 249 253 261 263 264 268 268 257 253 244 251 257 261 253 268 279 279 273 272 274 276 279 284 284 281 282
268 259 266 267 265 265 257 260 273 274 260 258 257 251 251 246 243 251 255 259 263 261 263 259 253 249 238 247 252 261 257 271 277 281 259 272 268 272 276 281 282 280 281
268 263 263 266 261 262 263 269 270 272 267 257 256 255 251 243 241 245 248 256 258 259 254 266 267 255 249 251 259 260 274 278 262 257 268 261 265 274 276 278 274 272 280
266 268 266 273 273 269 271 271 274 265 259 250 248 250 248 244 247 249 246 253 254 256 255 268 263 240 244 246 244 244 253 257 247 263 256 262 271 273 272 270 270 275 285
275 277 268 268 266 276 269 256 261 253 242 243 241 240 241 243 244 246 249 248 256 263 263 251 249 237 231 232 231 236 243 250 255 256 256 261 270 267 264 261 266 277 286
289 268 294 256 262 249 216 243 261 233 231 238 236 235 238 242 243 246 250 252 254 263 249 231 236 231 242 248 245 239 244 249 253 255 257 260 260 257 255 257 269 278 285
306 299 294 301 281 261 227 184 218 230 227 228 232 237 240 245 248 250 255 258 252 250 241 229 254 239 252 247 247 247 252 250 253 255 256 254 254 254 251 260 267 276 285
282 295 295 302 289 282 248 320 225 172 226 230 231 235 240 245 250 254 249 247 243 247 218 237 250 264 249 248 250 247 249 250 255 255 249 245 246 245 252 259 269 276 288
284 281 287 294 297 288 299 289 318 311 214 181 232 237 236 235 234 239 242 243 231 225 242 241 249 259 257 251 251 250 251 253 251 248 245 246 242 243 251 262 272 279 289
257 267 272 282 285 289 298 301 305 306 298 270 204 206 204 214 216 231 235 238 245 243 246 250 254 268 260 266 257 264 267 253 247 248 251 250 240 241 255 267 274 278 286
243 254 261 265 277 284 281 286 283 284 276 263 262 271 259 256 249 228 251 247 244 259 245 246 260 266 266 258 260 262 253 239 254 255 260 258 243 248 259 268 274 277 287
244 236 251 258 256 264 273 271 275 272 266 264 259 263 249 242 245 249 249 244 240 250 253 255 256 264 261 261 263 255 248 244 251 252 264 260 249 251 262 271 274 274 281
254 259 241 251 252 253 265 262 265 256 248 247 248 245 242 241 235 239 240 244 249 255 254 258 263 258 260 264 255 248 238 239 248 255 262 255 251 254 262 269 271 270 278
264 277 253 238 240 249 258 257 257 244 244 244 246 240 238 241 242 241 244 247 251 254 256 262 264 262 265 259 252 247 235 245 258 266 261 252 255 260 264 269 270 272 277
278 254 255 247 244 235 244 247 244 241 242 242 238 238 239 242 248 251 250 249 253 257 259 265 272 268 270 251 239 241 248 249 252 261 261 251 258 264 267 267 270 272 276
272 275 274 276 282 224 235 217 226 227 220 223 232 238 240 241 244 250 256 258 260 264 267 270 272 271 255 231 235 244 241 248 252 252 251 255 262 268 270 268 268 269 276
338 288 254 252 265 215 203 198 199 206 206 214 224 232 237 236 237 238 253 267 275 273 273 268 270 270 253 237 242 237 233 241 254 259 259 261 268 269 269 266 262 269 275
307 320 332 231 216 217 220 187 198 203 212 220 232 240 239 243 250 252 257 266 272 282 275 265 273 276 251 235 234 231 237 246 251 257 262 266 268 272 272 268 266 270 277